{"data":{"norad_id":60750,"intl_designator":"2024-153F","name":"2024-153F","alt_names":[],"object_type":"PAYLOAD","status":"ACTIVE","operator":null,"country":"PRC","launch_date":"2024-08-29","launch_site_code":"YSLA","launch_vehicle":null,"mission":null,"orbit_class":"UNKNOWN","rcs_meters":null,"size_class":null,"mass_kg":null,"dimensions":null,"purposes":[],"wikipedia_slug":null,"has_3d_model":false,"image_url":null,"decayed_at":null,"tle_current":{"epoch":"2026-05-25T04:24:10.970784Z","epoch_age_seconds":58912,"freshness":"FRESH","line1":"1 60750U 24153F   26145.18346031  .00013810  00000+0  55151-3 0  9999","line2":"2 60750  97.6683 281.1808 0004650 341.0834  19.0230 15.25258075 96296","mean_motion":15.25258075,"eccentricity":0.000465,"inclination_deg":97.6683,"raan_deg":281.1808,"arg_perigee_deg":341.0834,"mean_anomaly_deg":19.023,"bstar":0.00055151,"rev_number":9629,"period_min":94.410252507596,"perigee_km":486.81690482167,"apogee_km":493.20428208358,"semimajor_km":6868.1475934526,"source":"CELESTRAK","updated_at":"2026-05-25T13:38:02.226958Z"}}}